Location: Casteau
(50.5142°N, 4.0161°E)
Time: 04:28:50
(UTC+00:00)

Vanguard 1 Rocket - Pass Details

Date: 01 August 2021
Orbit: 650 x 4226 km, 34.3° (Epoch: 21 September)

Event Time Altitude Azimuth Distance (km) Brightness Sun altitude
Rises 06:47:00 0° 189° (S) 8,400 12.2 22.7°
Reaches altitude 10° 06:57:11 10° 172° (S) 6,997 12.1 24.3°
Maximum altitude 07:07:27 15° 144° (SE) 5,838 12.2 25.9°
Drops below altitude 10° 07:15:42 10° 115° (ESE) 5,513 12.8 27.2°
Sets 07:21:43 0° 95° (E) 5,837 12.8 28.2°
